Dewpoint
52 54 56 56 57 58 59 59 60 60 61 61 62 62 63 64 65 66 66 67 67 67 67 68 68 69 69 69 69 69 70 70 70 70 70 70 70 70 70 70 70 70 70 70 71 71 72 74 74 74 74 74 74 73 73 73 73 72 70 70 69 68 68
50 52 54 55 56 57 58 59 60 60 61 61 61 62 62 64 65 65 66 66 67 67 67 68 68 69 69 69 69 70 69 70 70 70 70 70 70 70 70 70 70 70 71 71 71 72 73 73 73 73 74 74 74 74 73 73 72 71 70 69 68 68 68
48 50 52 54 55 56 58 59 59 60 60 60 61 61 62 64 65 66 66 66 67 67 67 68 68 69 69 69 69 70 70 70 70 70 70 69 70 69 70 70 70 70 71 71 72 72 73 73 73 73 74 74 73 73 73 72 72 71 70 68 68 67 67
46 48 50 53 55 56 57 58 59 59 59 60 60 61 62 63 64 65 66 66 66 67 67 67 68 68 69 69 69 70 70 70 70 70 70 70 70 70 70 70 71 71 71 71 71 72 73 73 73 73 74 73 73 73 72 71 71 70 69 68 67 67 67
45 46 48 51 53 55 56 57 58 59 58 59 60 62 62 62 63 64 65 66 66 66 66 67 67 68 69 70 70 70 70 70 70 70 70 71 71 71 70 70 70 70 71 71 72 72 73 73 73 73 73 73 73 73 72 71 70 70 69 68 67 67 66
44 45 47 48 50 53 55 56 57 57 58 58 59 61 61 62 62 63 64 66 66 66 67 68 68 69 69 69 70 70 70 71 71 71 71 71 71 71 71 70 70 70 70 71 72 72 73 73 72 73 73 73 72 72 72 71 69 69 69 68 67 67 66
45 46 46 47 49 51 53 55 56 57 58 58 59 60 61 61 62 62 63 64 65 66 66 67 67 68 68 69 70 70 70 70 71 71 71 71 71 71 71 71 71 70 71 71 71 72 72 72 72 72 72 72 72 72 71 70 69 69 68 68 67 67 66
45 46 47 47 47 49 51 54 56 56 58 59 59 59 60 61 61 62 62 63 64 65 66 66 67 68 68 69 69 69 70 70 70 71 71 71 71 71 71 71 71 71 71 71 71 72 72 72 72 72 72 72 72 72 71 70 70 68 68 68 67 66 66
45 47 47 46 46 47 50 53 55 56 58 59 59 59 60 60 61 61 62 63 64 64 65 66 66 67 69 69 69 69 70 70 70 71 71 71 71 70 70 71 71 71 71 71 71 72 72 72 72 72 72 72 72 71 71 70 69 68 68 68 67 66 65
45 47 48 48 48 47 49 51 55 57 58 59 60 60 60 60 61 61 61 62 63 64 64 65 66 67 68 69 69 69 70 70 70 70 70 70 70 70 70 70 71 71 71 71 71 71 72 72 72 72 72 71 71 71 71 70 69 68 68 67 67 67 66
46 48 48 48 50 50 50 50 53 57 58 59 60 59 60 60 61 61 61 62 62 63 64 65 66 66 67 68 68 69 69 69 69 70 70 70 70 70 70 70 70 71 71 71 71 71 71 72 72 72 72 71 71 71 70 70 69 68 67 67 67 66 66
48 48 49 50 50 51 50 51 53 56 58 59 59 59 60 61 60 61 61 62 62 63 64 64 65 66 67 68 68 69 69 69 69 69 70 70 70 70 70 70 71 71 71 71 70 71 71 71 71 71 71 71 71 71 70 70 69 68 67 66 66 66 65
47 48 49 48 50 51 53 54 53 54 57 57 58 59 59 60 60 61 62 62 62 63 64 65 65 66 66 67 68 69 69 69 69 70 70 70 71 71 71 71 71 70 70 71 71 70 70 71 71 71 71 71 71 70 70 70 69 68 68 67 66 65 65
57 50 49 52 53 52 53 54 54 54 55 56 58 59 60 60 60 61 62 62 63 63 64 64 66 66 67 68 68 69 69 69 70 70 71 71 71 71 71 71 71 71 71 71 71 70 70 70 71 71 71 71 71 71 70 70 69 68 68 67 66 65 65
40 41 45 47 51 52 52 53 54 55 54 56 57 59 60 60 61 62 63 63 63 63 63 65 66 66 67 67 68 69 69 70 70 71 71 71 71 71 71 71 72 72 72 71 71 71 71 71 70 70 70 70 70 70 70 69 68 68 67 67 66 66 65
35 37 39 43 47 49 52 52 53 55 56 57 57 59 59 60 61 61 62 62 62 64 64 65 66 67 67 67 68 69 70 70 70 71 71 71 71 71 71 71 72 72 72 71 71 71 71 71 71 70 70 70 70 70 69 69 68 65 61 62 66 66 65
42 39 38 41 46 48 51 52 53 55 57 57 57 58 60 61 61 61 61 62 62 64 64 65 66 66 67 67 68 69 70 70 70 71 71 71 71 71 72 72 72 72 72 71 71 71 71 71 70 70 70 70 70 69 69 69 68 61 60 61 62 65 65
49 48 45 41 44 48 51 52 53 54 55 56 56 58 59 61 61 62 62 62 62 63 64 65 66 66 67 67 69 69 70 70 70 71 71 71 71 71 72 72 72 72 72 71 71 71 71 71 70 70 70 70 69 69 69 69 63 60 60 60 60 62 66
47 48 49 49 50 51 48 48 50 53 53 55 56 57 58 60 60 62 62 63 63 64 64 65 65 67 68 68 69 69 70 70 70 71 71 71 71 72 72 72 72 72 71 71 71 71 71 71 70 70 70 70 69 69 69 69 63 60 59 59 59 61 63
51 52 54 53 52 50 51 51 51 52 53 56 57 56 57 60 60 61 62 63 64 65 65 66 66 67 68 69 69 70 70 70 70 70 71 71 71 72 72 72 71 71 72 71 72 71 71 71 71 70 70 70 69 69 69 69 63 59 58 58 58 60 62
53 55 55 55 55 53 53 53 53 54 55 55 56 58 60 60 60 62 62 64 64 65 66 67 67 68 68 69 69 70 70 71 71 71 71 71 71 72 71 71 72 72 72 71 71 71 71 71 70 70 70 70 70 69 69 68 62 58 57 57 57 59 61
59 58 58 59 57 56 57 54 53 52 54 59 60 59 59 59 60 61 61 63 64 65 66 67 67 68 68 69 70 70 70 71 71 71 71 71 71 71 71 71 72 71 72 71 71 71 71 71 71 70 70 70 70 69 69 68 59 57 56 56 57 58 64
64 63 63 64 65 64 60 58 56 55 59 59 59 60 59 59 60 61 62 63 64 66 66 66 67 67 68 69 69 70 70 71 71 71 71 71 71 71 71 71 71 72 72 71 71 71 71 71 70 71 70 70 70 69 69 69 61 56 55 55 56 58 66
64 64 64 64 65 66 67 65 60 61 58 59 60 59 60 60 62 63 64 64 64 65 65 66 66 67 68 68 69 70 70 71 71 71 71 71 71 71 71 71 72 72 72 71 71 70 70 71 71 71 70 70 70 69 69 69 61 54 54 54 55 60 66
64 64 64 64 65 66 66 66 66 61 62 61 59 62 63 63 63 64 64 65 65 65 65 65 66 67 67 68 69 70 71 71 71 71 71 71 71 71 71 71 71 72 72 71 71 71 71 71 70 70 70 69 69 66 68 69 60 54 54 54 55 61 67
64 64 64 65 66 67 67 66 62 61 62 61 62 62 63 63 63 64 64 64 64 64 64 65 66 66 67 68 69 70 71 71 71 71 71 71 71 71 71 71 71 71 71 71 71 71 71 71 70 70 70 70 69 69 68 69 63 58 53 53 54 58 67
65 65 64 65 66 68 67 68 67 66 66 66 64 65 63 64 63 63 64 65 65 64 64 65 66 67 67 68 68 69 70 71 71 71 71 71 72 71 71 71 71 71 71 71 71 71 71 71 70 70 70 69 69 69 69 69 65 59 53 53 54 57 61
64 65 65 66 67 67 67 68 68 68 68 68 68 67 66 64 64 64 64 64 64 64 65 67 68 68 69 68 68 69 70 70 71 71 71 72 72 72 72 72 72 71 71 71 71 71 71 71 70 70 70 70 70 70 70 68 62 59 53 53 53 56 58
64 64 64 65 65 66 67 67 67 67 67 67 67 68 67 66 65 65 66 65 64 65 66 67 67 68 68 68 68 69 69 70 71 71 71 71 71 71 71 72 72 71 71 71 71 71 70 70 70 70 70 70 71 70 70 70 63 56 57 52 53 55 57
64 64 65 65 65 66 66 66 67 67 67 67 67 67 67 67 66 66 66 65 67 67 68 67 67 68 67 67 68 68 68 69 70 71 71 71 71 71 71 71 71 71 71 71 71 71 71 71 71 70 70 69 69 69 70 69 66 56 54 56 54 55 56
64 64 65 65 65 66 66 66 66 66 66 67 67 67 67 67 67 67 67 67 69 69 68 68 68 67 67 67 67 67 68 68 69 70 71 71 71 71 71 71 71 71 72 71 71 71 71 71 70 70 70 70 69 69 68 67 65 60 56 55 54 55 55
64 65 65 66 66 66 66 66 66 66 66 66 67 67 67 67 67 66 66 68 69 70 70 69 68 68 68 68 68 68 68 68 69 70 70 71 71 71 71 71 71 71 72 71 71 71 71 70 70 70 69 69 69 68 67 67 64 60 59 58 56 57 56
64 65 65 65 66 66 66 66 66 66 66 66 67 67 67 67 67 67 67 68 68 69 69 69 69 68 68 69 69 69 68 68 69 70 70 71 71 71 71 71 71 71 71 71 71 71 71 70 69 69 69 69 69 68 67 65 64 61 60 60 60 61 61
63 64 65 66 66 67 67 66 66 66 66 66 66 67 67 67 67 67 68 68 68 68 69 68 68 68 68 68 68 69 69 68 68 69 70 70 71 71 71 71 71 71 71 71 71 71 70 70 69 69 69 69 69 67 66 65 64 61 60 60 60 61 61
63 63 64 65 66 66 67 67 66 66 66 66 66 66 66 67 67 67 68 68 68 68 68 68 68 68 69 69 69 69 69 69 69 69 69 70 71 71 71 71 70 71 71 71 71 71 70 70 70 70 70 70 68 66 64 64 63 62 58 60 56 59 60
63 64 64 65 65 66 66 66 66 66 65 65 66 66 66 66 66 66 67 68 68 68 68 68 68 69 69 69 69 69 69 69 70 70 69 70 71 71 71 65 49 55 69 71 66 63 62 63 70 70 70 70 68 67 65 64 65 56 54 51 50 51 53
62 63 64 64 65 65 65 65 66 65 65 65 66 66 66 65 66 66 66 68 68 68 68 68 68 68 67 66 66 65 67 67 68 68 68 69 70 70 70 69 61 48 44 49 62 61 57 54 58 60 62 67 67 64 58 58 54 51 50 49 49 49 50
62 63 64 64 64 65 65 65 65 65 65 66 66 66 66 66 66 67 67 68 69 68 68 68 67 66 66 65 65 65 65 65 65 65 66 67 68 68 69 68 66 61 50 44 49 56 53 52 51 52 55 57 61 61 63 55 51 50 48 48 48 48 48